Flag for Germany Weather past 2 weeks in Crailsheim, Baden-Württemberg, Germany

Now
28 °F

Passing clouds.


Feels Like: 20 °F
Forecast: 27 / 33 °F
Wind: 8 mph from South

Location: Niederstetten

Current Time: Feb 1, 2015 at 7:02:16 AM

Latest Report: Feb 1, 2015 at 6:20 AM


Visibility: N/A

Pressure: 29.12 "Hg

Humidity: 93%

Dew point: 27 °F

Location of CrailsheimLocation

Historic Weather in Crailsheim — Graph

°F

Crailsheim temperature yesterday

Maximum temperature yesterday: 32 °F (at 12:45 PM)
Minimum temperature yesterday: 28 °F (at 12:20 AM)
Average temperature yesterday: 31 °F

Past Weeks' High & Low Weather Summary

 TemperatureHumidityPressure
High37 °F (Jan 17, 10:20 AM)100% (Jan 17, 5:20 AM)30.36 "Hg (Jan 17, 5:20 AM)
Low23 °F (Jan 21, 12:20 AM)70% (Jan 19, 2:20 PM)28.71 "Hg (Jan 30, 1:20 AM)
Average32 °F93%29.80 "Hg
* Reported Jan 17 5:20 AM — Feb 1 5:20 AM, Crailsheim, Weather by CustomWeather, © 2014

Note: Actual official high and low records may vary slightly from our data, if they occured in-between our weather recording intervals... More about our weather records

Advertising

Crailsheim weather history for previous 24 hours

 ConditionsComfort  
Time TempWeatherWind HumidityBarometerVisibility
5:20 AM
Feb 1
28 °FPassing clouds.8 mph93%29.12 "HgN/A
4:20 AM28 °FPartly cloudy.10 mph93%29.12 "HgN/A
3:20 AM27 °FPassing clouds.8 mph93%29.12 "HgN/A
2:20 AM25 °FPassing clouds.9 mph100%29.12 "HgN/A
1:20 AM27 °FPassing clouds.8 mph93%29.12 "HgN/A
12:20 AM30 °FPassing clouds.10 mph93%29.12 "HgN/A
11:20 PM
Jan 31
32 °FPassing clouds.15 mph93%29.12 "HgN/A
10:20 PM32 °FLight snow. Passing clouds.13 mph93%29.12 "Hg4 mi
9:20 PM30 °FLight snow. Ice fog.10 mph100%29.09 "Hg2 mi
8:20 PM30 °FLight snow. Partly cloudy.10 mph100%29.09 "Hg2 mi
7:20 PM30 °FLight snow. Passing clouds.8 mph93%29.09 "HgN/A
6:20 PM30 °FPartly cloudy.8 mph93%29.09 "HgN/A
5:20 PM32 °FPartly cloudy.8 mph87%29.06 "HgN/A
4:20 PM32 °FPartly sunny.10 mph87%29.06 "HgN/A
3:20 PM32 °FBroken clouds.12 mph87%29.06 "HgN/A
2:20 PM32 °FPartly sunny.13 mph87%29.03 "HgN/A
1:20 PM32 °FPartly sunny.16 mph87%29.03 "HgN/A
12:45 PM32 °FLight snow. Partly sunny.15 mph87%29.03 "Hg6 mi
12:20 PM30 °FIce fog.15 mph93%29.03 "Hg2 mi
11:20 AM30 °FPartly sunny.15 mph93%29.03 "HgN/A
10:20 AM30 °FBroken clouds.15 mph86%29.00 "HgN/A
9:20 AM30 °FBroken clouds.21 mph86%29.00 "HgN/A
8:20 AM30 °FLight snow. Mostly cloudy.21 mph86%28.97 "Hg5 mi
7:20 AM28 °FLight snow. Mostly cloudy.20 mph93%28.97 "Hg3 mi
Weather by CustomWeather, © 2014

See weather overviewHow to use our weather pages